Time,TemperatureF,DewpointF,PressureIn,WindDirection,WindDirectionDegrees,WindSpeedMPH,WindSpeedGustMPH,Humidity,HourlyPrecipIn,Conditions,Clouds,dailyrainin,SoftwareType,DateUTC
2014-12-18 05:12:00,48.0,45.0,29.95,NNE,26,0.0,0.0,88,0.00,,,0.05,,2014-12-18 13:12:00,
2014-12-18 05:22:00,48.0,45.0,29.95,NNE,26,0.0,0.0,88,0.00,,,0.05,,2014-12-18 13:22:00,
2014-12-18 05:32:00,48.0,45.0,29.95,NNE,26,0.0,0.0,88,0.00,,,0.05,,2014-12-18 13:32:00,
2014-12-18 06:53:00,47.0,45.0,29.98,NNE,26,0.0,0.0,91,0.00,,,0.00,,2014-12-18 14:53:00,
2014-12-18 07:02:00,47.0,45.0,29.98,NNE,26,0.0,0.0,91,0.00,,,0.00,,2014-12-18 15:02:00,
2014-12-18 07:11:00,47.0,45.0,29.98,NNE,26,0.0,0.0,91,0.00,,,0.00,,2014-12-18 15:11:00,
2014-12-18 07:22:00,47.0,45.0,29.98,NNE,26,0.0,0.0,91,0.00,,,0.00,,2014-12-18 15:22:00,
2014-12-18 09:00:00,59.0,50.0,30.02,NE,46,0.0,4.0,71,0.00,,,0.00,,2014-12-18 17:00:00,
2014-12-18 09:22:00,59.0,50.0,30.02,NE,46,0.0,4.0,71,0.00,,,0.00,,2014-12-18 17:22:00,
2014-12-18 09:33:00,59.0,50.0,30.02,NE,46,0.0,4.0,71,0.00,,,0.00,,2014-12-18 17:33:00,
2014-12-18 09:43:00,59.0,50.0,30.02,NE,46,0.0,4.0,71,0.00,,,0.00,,2014-12-18 17:43:00,
2014-12-18 09:52:00,59.0,50.0,30.02,NE,46,0.0,4.0,71,0.00,,,0.00,,2014-12-18 17:52:00,
2014-12-18 12:42:00,67.0,47.0,29.99,NE,52,0.0,1.0,48,0.00,,,0.00,,2014-12-18 20:42:00,
2014-12-18 12:52:00,67.0,47.0,29.98,South,169,0.0,1.0,48,0.00,,,0.00,,2014-12-18 20:52:00,
2014-12-18 13:02:00,67.0,47.0,29.98,South,169,0.0,1.0,48,0.00,,,0.00,,2014-12-18 21:02:00,
2014-12-18 13:11:00,67.0,47.0,29.98,South,169,0.0,1.0,48,0.00,,,0.00,,2014-12-18 21:11:00,
2014-12-18 13:22:00,68.0,46.0,29.98,SSW,211,0.0,5.0,46,0.00,,,0.00,,2014-12-18 21:22:00,
2014-12-18 13:34:00,68.0,46.0,29.98,SSW,211,0.0,5.0,46,0.00,,,0.00,,2014-12-18 21:34:00,
2014-12-18 13:43:00,68.0,46.0,29.98,SSW,211,0.0,5.0,46,0.00,,,0.00,,2014-12-18 21:43:00,
2014-12-18 13:54:00,68.0,46.0,29.98,SSW,211,0.0,5.0,46,0.00,,,0.00,,2014-12-18 21:54:00,
2014-12-18 14:13:00,67.0,46.0,29.96,West,272,0.0,7.0,47,0.00,,,0.00,,2014-12-18 22:13:00,
2014-12-18 14:23:00,67.0,46.0,29.96,West,272,0.0,7.0,47,0.00,,,0.00,,2014-12-18 22:23:00,
2014-12-18 14:34:00,67.0,46.0,29.96,West,272,0.0,7.0,47,0.00,,,0.00,,2014-12-18 22:34:00,